Regional Weather Roundup
Issued by NWS Mobile, AL

Home | Current Version | Previous Version | Text Only | Print | Product List | Glossary On
Versions: 1 2 3 4 5 6 7 8 9 10 11 12 13 14 15 16 17 18 19 20 21 22 23 24 25 26 27
000
ASUS44 KMOB 271812
RWRMOB
REGIONAL WEATHER ROUNDUP
NATIONAL WEATHER SERVICE MOBILE AL
100 PM CDT SAT MAY 27 2017

NOTE: "FAIR" INDICATES FEW OR NO CLOUDS BELOW 12,000 FEET WITH NO
      SIGNIFICANT WEATHER AND/OR OBSTRUCTIONS TO VISIBILITY.

  * THESE STATIONS ARE PART OF THE UNIVERSITY OF SOUTH ALABAMA
    MESONET AND ARE NOT UNDER NWS OR FAA QUALITY CONTROL.

ALZ061>064-271900-
COASTAL ALABAMA

CITY           SKY/WX    TMP DP  RH WIND       PRES   REMARKS
MOBILE REG APT MOSUNNY   84  70  62 SW10      30.09S
6HR MIN TEMP:  75; 6HR MAX TEMP:  87;

BROOKLEY FIELD PTSUNNY   84  78  82 SE13      30.09F HX  95
6HR MIN TEMP:  75; 6HR MAX TEMP:  84;

USA CAMPUS*      N/A     86  70  58 CALM      30.08S
DOG RIVER*       N/A     86  73  66 S7        30.84F


CITY           SKY/WX    TMP DP  RH WIND       PRES   REMARKS
GULF SHORES    PTSUNNY   85  74  70 SW7G20    30.09S

$$

ALZ051>060-271900-
INTERIOR SOUTHWEST AND SOUTH CENTRAL ALABAMA

CITY           SKY/WX    TMP DP  RH WIND       PRES   REMARKS
GREENVILLE     PTSUNNY   83  68  60 SW9       30.08F
6HR MIN TEMP:  63; 6HR MAX TEMP:  83; 6HR PCP: TRACE;

EVERGREEN      MOSUNNY   85  71  63 VRB5      30.09F
6HR MIN TEMP:  63; 6HR MAX TEMP:  86;

ATMORE*          N/A     84  70  61 W6        30.10F
ANDALUSIA/OPP  MOSUNNY   88  68  51 SW7       30.09F
6HR MIN TEMP:  65; 6HR MAX TEMP:  89;

ANDALUSIA*       N/A     82  70  65 SW3       30.10F
FLORALA APT    MOSUNNY   87  66  49 VRB3      30.11F
6HR MIN TEMP:  64; 6HR MAX TEMP:  87; 6HR PCP: TRACE;

FLORALA*         N/A     86  68  54 CALM      30.82F

$$

FLZ001>006-271900-
WESTERN FLORIDA PANHANDLE

CITY           SKY/WX    TMP DP  RH WIND       PRES   REMARKS
PENSACOLA      PTSUNNY   84  73  69 S13       30.09S
6HR MIN TEMP:  78; 6HR MAX TEMP:  85;

NAS PENSACOLA  PTSUNNY   78  73  84 S12       30.09S
6HR MIN TEMP:  75; 6HR MAX TEMP:  83;

MILTON         PTSUNNY   84  69  60 W8        30.09F
6HR MIN TEMP:  68; 6HR MAX TEMP:  86; 6HR PCP: TRACE;

WHTNG S FIELD    N/A    N/A N/A N/A MISG      30.09F


CITY           SKY/WX    TMP DP  RH WIND       PRES   REMARKS
JAY*             N/A     84  68  58 SW8       30.09S
DUKE FIELD     PTSUNNY   86  67  52 W6        30.08F
CRESTVIEW      MOSUNNY   88  67  49 NW10      30.10F
6HR MIN TEMP:  63; 6HR MAX TEMP:  88;

VALPARAISO     PTSUNNY   83  71  66 SW10      30.09F
DESTIN         SUNNY     85  77  77 S6        30.10S HX  95
6HR MIN TEMP:  79; 6HR MAX TEMP:  85;


$$

MSZ076-079-271900-
INTERIOR SOUTHEAST MISSISSIPPI

CITY           SKY/WX    TMP DP  RH WIND       PRES   REMARKS
LEAKESVILLE*   NOT AVBL
AGRICOLA*        N/A     88  72  58 SW3       30.07S

$$

MARINE OBSERVATIONS

STATION/POSITION TIME  TEMP    WIND        PRES    WAVE
                       AIR SEA DIR/SP/G            HT/PER
                 (UTC) (F)     (DEG/KT/KT) (MB)    (FT/S)
PASCAGOULA       1748   80     160/  9/ 10 1018.7F
PETIT BOIS ISLND 1748   81     190/  6/  7 1019.7S
GRAND BAY        1630   80     190/  8     1020.0S
KATRINA CUT      1730   79     190/  4     1019.3F
CEDAR POINT      1730   79     210/  6     1019.0F
E DAUPHIN ISLAND 1700   80     190/  4/  5 1018.8S
MIDDLE BAY LIGHT 1730   79     190/  9     1019.0S
USCG MOBILE BAY  1748   79 77  130/  6/ 10 1019.3F
STATE DOCKS      1748   80 78              1018.7F
MEAHER PARK      1730   78     170/  9     1018.3F
FORT MORGAN      1748   81     190/  5/  6   N/A
12 S ORANGE BCH  1750   78 79  180/  4/  4 1018.9F   2/ 5
PENSACOLA BAY    1742   85 79              1019.3F
64 S DAUPHIN ISL 1750   80 79  160/  4/  6 1019.1F   2/ 5
67 S FORT MORGAN 1730   78        CALM     1019.3F

$$

SELECTED LOCATIONS ACROSS THE REGION

CITY           SKY/WX    TMP DP  RH WIND       PRES   REMARKS
NEW ORLEANS    PTSUNNY   86  76  71 S12G20    30.05S HX  96
GULFPORT       MOSUNNY   86  76  71 S8        30.06F HX  96
PASCAGOULA AP  MOSUNNY   85  73  67 S7        30.08F
PASCAGOULA*    NOT AVBL
HATTIESBURG    MOSUNNY   87  71  58 SW9       30.05F
LAUREL         PTSUNNY   86  73  66 S6        30.08S
MERIDIAN       CLOUDY    86  73  65 S14       30.04F
JACKSON        PTSUNNY   84  72  67 S13       30.02F
MONTGOMERY     PTSUNNY   85  68  56 W8        30.07F
TROY           PTSUNNY   83  68  60 VRB3      30.09F
ASHFORD*         N/A     82  70  65 SW3       30.10F
DOTHAN         MOSUNNY   84  66  54 W13G18    30.13F
PANAMA CITY    PTSUNNY   85  68  56 W9        30.08F

$$





USA.gov is the U.S. government's official web portal to all federal, state and local government web resources and services.